Weather History for KCRP - July, 2012

Change the Weather History Date:

Thursday, July 19, 2012

  Actual Average Record
Temperature  
Mean Temperature 87 °F 84 °F  
Max Temperature 97 °F 93 °F 98 °F (1998)
Min Temperature 77 °F 75 °F 68 °F (1986)
Degree Days  
Heating Degree Days 0 0  
Month to date heating degree days 0 0  
Since 1 June heating degree days 0 0  
Since 1 July heating degree days 0 0  
Cooling Degree Days 22 19  
Month to date cooling degree days 390 357  
Year to date cooling degree days 2230 1720  
Since 1 June cooling degree days 997 879  
Growing Degree Days 37 (Base 50)    
Moisture  
Dew Point 74 °F    
Average Humidity 69    
Maximum Humidity 91    
Minimum Humidity 46    
Precipitation  
Precipitation T in 0.07 in 1.52 in (1964)
Month to date precipitation 1.34 2.04  
Year to date precipitation 14.30 15.67  
Snow  
Snow 0.00 in - - ()
Month to date snowfall 0.0  
Since 1 June snowfall 0.0  
Since 1 July snowfall 0.0  
Snow Depth 0.00 in    
Sea Level Pressure  
Sea Level Pressure 30.05 in    
Wind  
Wind Speed 9 mph (SSE)    
Max Wind Speed 20 mph    
Max Gust Speed 24 mph    
Visibility 10 miles    
Events      
T = Trace of Precipitation, MM = Missing Value Source: NWS Daily Summary

Daily Weather History Graph

Daily Weather History Graph

Search for Another Location

Airport or City:

Trip Planner

Search our weather history database for the weather conditions in past years. The results will help you decide how hot, cold, wet, or windy it might be!

Date:

Astronomy

Jul. 19, 2012 Rise Set
Actual Time 6:46 AM CDT 8:26 PM CDT
Civil Twilight 6:20 AM CDT 8:52 PM CDT
Nautical Twilight 5:49 AM CDT 9:23 PM CDT
Astronomical Twilight 5:16 AM CDT 9:55 PM CDT
Moon 7:14 AM CDT (7/19) 8:44 PM CDT (7/19)
Length of Visible Light 14h 31m
Length of Day
13h 39m
New Moon, 0% of the Moon is Illuminated
Jul 19
New Moon
Jul 26
First Quarter
Aug 1
Full
Aug 9
Last Quarter
Aug 17
New

Hourly Weather History & Observations

Time (CDT) Temp. Heat Index Dew Point Humidity Pressure Visibility Wind Dir Wind Speed Gust Speed Precip Events Conditions
12:51 AM 81.0 °F 87.3 °F 75.9 °F 85% 30.02 in 10.0 mi SSE 5.8 mph - N/A   Partly Cloudy
1:51 AM 79.0 °F - 75.0 °F 88% 30.02 in 10.0 mi SSE 4.6 mph - N/A   Partly Cloudy
2:51 AM 78.1 °F - 75.0 °F 90% 30.02 in 10.0 mi SE 4.6 mph - N/A   Partly Cloudy
3:51 AM 78.1 °F - 73.9 °F 87% 30.03 in 10.0 mi SE 3.5 mph - N/A   Partly Cloudy
4:51 AM 78.1 °F - 75.0 °F 90% 30.04 in 9.0 mi Calm Calm - N/A   Partly Cloudy
5:51 AM 79.0 °F - 75.0 °F 88% 30.04 in 10.0 mi SE 4.6 mph - N/A   Partly Cloudy
6:51 AM 78.1 °F - 75.0 °F 90% 30.05 in 10.0 mi SSE 3.5 mph - N/A   Partly Cloudy
7:51 AM 81.0 °F 87.9 °F 77.0 °F 88% 30.07 in 10.0 mi SE 3.5 mph - N/A   Partly Cloudy
8:51 AM 86.0 °F 96.9 °F 77.0 °F 74% 30.08 in 10.0 mi SSE 8.1 mph - N/A   Partly Cloudy
9:51 AM 90.0 °F 100.2 °F 75.0 °F 61% 30.09 in 10.0 mi South 11.5 mph 19.6 mph N/A   Scattered Clouds
10:51 AM 90.0 °F 96.9 °F 72.0 °F 55% 30.09 in 10.0 mi South 13.8 mph 17.3 mph N/A   Mostly Cloudy
11:51 AM 95.0 °F 103.2 °F 72.0 °F 47% 30.09 in 10.0 mi SSE 13.8 mph 23.0 mph N/A   Scattered Clouds
12:51 PM 93.0 °F 100.7 °F 72.0 °F 50% 30.08 in 10.0 mi SSE 15.0 mph 21.9 mph N/A   Scattered Clouds
1:51 PM 93.9 °F 102.1 °F 72.0 °F 49% 30.07 in 10.0 mi South 16.1 mph 24.2 mph N/A   Scattered Clouds
2:51 PM 93.0 °F 103.2 °F 73.9 °F 54% 30.06 in 10.0 mi South 15.0 mph 23.0 mph 0.00 in   Mostly Cloudy
3:51 PM 91.9 °F 100.7 °F 73.0 °F 54% 30.05 in 10.0 mi South 12.7 mph - N/A   Mostly Cloudy
4:51 PM 93.0 °F 101.9 °F 73.0 °F 52% 30.02 in 10.0 mi South 10.4 mph - N/A   Partly Cloudy
5:51 PM 91.0 °F 99.3 °F 73.0 °F 55% 30.02 in 10.0 mi SSE 12.7 mph - N/A   Scattered Clouds
6:51 PM 89.1 °F 98.0 °F 73.9 °F 61% 30.02 in 10.0 mi SE 11.5 mph - N/A   Partly Cloudy
7:51 PM 87.1 °F 95.4 °F 73.9 °F 65% 30.02 in 10.0 mi SSE 11.5 mph - N/A   Partly Cloudy
8:51 PM 84.9 °F 93.3 °F 75.0 °F 72% 30.04 in 10.0 mi SSE 10.4 mph - N/A   Partly Cloudy
9:51 PM 84.0 °F 91.9 °F 75.0 °F 74% 30.05 in 10.0 mi SSE 9.2 mph - N/A   Partly Cloudy
10:51 PM 82.0 °F 88.6 °F 75.0 °F 79% 30.06 in 10.0 mi SSE 5.8 mph - N/A   Partly Cloudy
11:51 PM 81.0 °F 86.7 °F 75.0 °F 82% 30.07 in 10.0 mi SSE 6.9 mph - N/A   Partly Cloudy